Location: Unspecified
(0.0000°N, 0.0000°E)
Time: 02:47:20
(UTC+00:00)

Explorer 11/Cluster Stage 4 - Pass Details

Date: 18 December 2018
Orbit: 467 x 1260 km, 28.8° (Epoch: 19 March)

Event Time Altitude Azimuth Distance (km) Brightness Sun altitude
Rises 19:30:21 0° 236° (SW) 4,205 11.8 -21.4°
Reaches altitude 10° 19:33:22 10° 234° (SW) 3,224 10.8 -22.1°
Maximum altitude 19:41:34 74° 150° (SSE) 1,213 7.4 -23.9°
Enters shadow 19:43:59 47° 78° (ENE) 1,469 7.4 -24.5°
